STARLINK-1358 (45566 NORAD) Tracking and Keplerian Element Data

This shows tracking and keplerian element data for the satellite.

Feedback or suggestion? Click here.




ElementValue
Catalog45566
NameSTARLINK-1358
Epoch Orbit1268
Epoch Day190.25001157
Epoch Year2020
RAAN24.0441
Inclination53.0002
Eccentricity0.0001303
Argument of Perigee74.4405
Mean Anonmoly135.6318
Mean Motion15.50385453
Decay Rate-0.01187482
L11 45566U 20025AM 20190.25001157 -.01187482 00000-0 -22525-1 0 9998
L22 45566 53.0002 24.0441 0001303 74.4405 135.6318 15.50385453 12687

Live tracking and technical data element details for STARLINK-1358 (NORAD 45566). STARLINK-1358 can be tracked NOW for your location showing map with azimuth and elevation plus other details from your city location.

Track the satellite on the map from your city or location and see movement details for azimuth, elevation, latitude, longitude, range, height, and movement on the map or in text.







IsCatalogInMostPopularTable: catalog: 45566, numindb: 16
Update: records affected: 1



GetName: 45566 STARLINK-1358

Hit Count: updated at: Thu, 09 Jul 2020 01:39:54 GMT